SES-18

Last updated on Tue Sep 16 2025 00:02:51 GMT+0000 (Coordinated Universal Time)

1 55970U 23038A 25258.56412252 -.00000118 00000+0 00000+0 0 9990 2 55970 0.0384 268.0659 0002003 317.3921 229.2869 1.00271189 9343
UTC large
Height (km)
Speed (km/s)
/
Latitude / Longitude
Inclination (degrees)
Orbital Period (minutes)
Azimuth
Elevation
Range (km)
Doppler Factor

Next 0 passes for location: London (51.5072 / 0.1276)

Sorry there are no passes over London.